User: anonymous   Login
Location: Arborea
(39.7744°N, 8.5819°E)
Time: 16:52:06
(UTC+00:00)
Language:

FALCON 9 DEB - Orbit

View from above orbital plane
View from above orbital plane
View from above satellite
View from above satellite

Ground track
Ground track

The orbit data is extracted from the following two-line orbital elements,

1 46087U 20055BN  22024.90635448  .00071819  00000-0  33716-3 0  9995
2 46087  52.9989 175.6347 0007029 250.3457 109.6806 15.82513324 88534
Epoch (UTC): 24 January 2022 21:45:09
Eccentricity: 0.0007029
inclination: 52.9989°
perigee height: 318 km
apogee height: 328 km
right ascension of ascending node: 175.6347°
argument of perigee: 250.3457°
revolutions per day: 15.82513324
mean anomaly at epoch: 109.6806°
orbit number at epoch: 8853

The dashed part of the orbit path shows where the satellite is in the earth's shadow,  

DLR